Regional Weather Roundup
Issued by NWS

Home | Current Version | Previous Version | Text Only | Print | Product List | Glossary Off
Versions: 1 2 3 4 5 6 7 8 9 10 11 12 13 14 15 16 17 18 19 20 21 22 23 24 25 26 27 28 29 30 31 32 33 34 35 36 37 38 39 40 41 42 43 44 45 46 47 48 49 50

000
ASUS45 KBOI 022110
RWRID

IDAHO REGIONAL WEATHER ROUNDUP
NATIONAL WEATHER SERVICE BOISE ID
300 PM MDT WED SEP 02 2015

NOTE: "FAIR" INDICATES FEW OR NO CLOUDS BELOW 12000 FEET
WITH NO SIGNIFICANT WEATHER AND/OR OBSTRUCTIONS TO VISIBILITY

IDZ012-014-022200-
SOUTHWEST IDAHO


CITY           SKY/WX    TMP DP  RH WIND       PRES   REMARKS
BOISE          FAIR      82  39  21 NE6       29.81F
CALDWELL       FAIR      82  43  24 N7        29.81F
MOUNTAIN HOME  FAIR      87  37  17 N12       29.78F
$$

IDZ016-017-022200-
SOUTHCENTRAL IDAHO


CITY           SKY/WX    TMP DP  RH WIND       PRES   REMARKS
BURLEY         FAIR      83  35  18 VRB3      29.87F
JEROME         FAIR      83  35  18 W7        29.88F
TWIN FALLS     FAIR      85  35  16 NW8       29.88F
$$

IDZ019>023-022200-
SOUTHEAST IDAHO


CITY           SKY/WX    TMP DP  RH WIND       PRES   REMARKS
IDAHO FALLS    FAIR      86  33  15 SW17G23   29.91F
POCATELLO      FAIR      88  34  14 W14       29.90F
REXBURG        FAIR      85  33  15 SW15G26   29.91F
$$

IDZ006-010-011-018-031-032-022200-
CENTRAL IDAHO MOUNTAINS


CITY           SKY/WX    TMP DP  RH WIND       PRES   REMARKS
MCCALL         FAIR      68  31  25 S21       29.93S
HAILEY         MOSUNNY   77  39  25 SW7G28    29.96F
STANLEY          N/A     72  28  19 VRB5      29.99S
SALMON         FAIR      81  37  21 N8        29.72R
CHALLIS        FAIR      84  23  10 SW15G24   29.83F
$$

IDZ002-004-006-007-026-022200-
NORTHERN IDAHO


CITY           SKY/WX    TMP DP  RH WIND       PRES   REMARKS
LEWISTON       CLOUDY    67  45  45 NW15G22   29.88R
LOWELL           N/A     79  46  31 MISG      29.79S
COEUR D`ALENE  CLOUDY    64  43  45 S18       29.84S
MULLAN PASS    LGT RAIN  43  40  89 SW8G17    29.96S
$$



USA.gov is the U.S. government's official web portal to all federal, state and local government web resources and services.